Fergus Falls, MN

9:26 AM CST on November 22, 2019 (GMT -0600)
Fergus Falls Municipal-Mickelson

Weather History for KFFM - September, 2019

Change the Weather History Date:

Friday, September 13, 2019

  Actual Average Record
Temperature  
Mean Temperature 54 °F -  
Max Temperature 59 °F 69 °F 90 °F (1952)
Min Temperature 48 °F 47 °F 32 °F (1975)
Degree Days  
Heating Degree Days 12    
Growing Degree Days 4 (Base 50)    
Moisture  
Dew Point 50 °F    
Average Humidity 92    
Maximum Humidity 100    
Minimum Humidity 72    
Precipitation  
Precipitation 0.01 in - - ()
Sea Level Pressure  
Sea Level Pressure 29.94 in    
Wind  
Wind Speed 12 mph ()    
Max Wind Speed 23 mph    
Max Gust Speed 30 mph    
Visibility 7.5 miles    
Events Rain    
Averages and records for this station are not official NWS values.
T = Trace of Precipitation, MM = Missing Value Source: Averaged Metar Reports

Daily Weather History Graph

Daily Weather History Graph

Search for Another Location

Airport or City:

Astronomy

Sep. 13, 2019 Rise Set
Actual Time 6:59 AM CDT 7:40 PM CDT
Civil Twilight 6:29 AM CDT 8:10 PM CDT
Nautical Twilight 5:53 AM CDT 8:46 PM CDT
Astronomical Twilight 5:15 AM CDT 9:23 PM CDT
Moon 7:58 PM CDT (9/13) 6:11 AM CDT (9/13)
Length of Visible Light 13h 41m
Length of Day
12h 40m
Full, 100% of the Moon is Illuminated
Sep 13
Full
Sep 13
Full
Sep 21
Last Quarter
Sep 28
New
Oct 5
First Quarter

Hourly Weather History & Observations

Time (CDT) Temp. Dew Point Humidity Pressure Visibility Wind Dir Wind Speed Gust Speed Precip Events Conditions
12:15 AM 53.6 °F 53.6 °F 100% 29.80 in 4.0 mi WNW 10.4 mph - N/A   Overcast
12:16 AM 53.6 °F 53.6 °F 100% 29.80 in 4.0 mi WNW 11.5 mph - N/A   Overcast
12:35 AM 53.6 °F 53.6 °F 100% 29.81 in 1.8 mi WNW 8.1 mph - N/A   Overcast
12:36 AM 53.6 °F 53.6 °F 100% 29.81 in 1.8 mi WNW 9.2 mph - N/A   Overcast
12:59 AM 53.6 °F 53.6 °F 100% 29.81 in 1.5 mi West 11.5 mph - N/A   Overcast
1:16 AM 53.6 °F 53.6 °F 100% 29.81 in 2.5 mi WNW 10.4 mph 18.4 mph N/A   Overcast
1:36 AM 51.8 °F 51.8 °F 100% 29.82 in 2.0 mi West 13.8 mph - N/A   Overcast
1:55 AM 51.8 °F 51.8 °F 100% 29.82 in 7.0 mi WNW 12.7 mph - N/A   Overcast
1:56 AM 51.8 °F 51.8 °F 100% 29.82 in 7.0 mi WNW 12.7 mph - N/A   Overcast
2:15 AM 51.8 °F 51.8 °F 100% 29.83 in 7.0 mi WNW 9.2 mph - N/A   Overcast
2:19 AM 51.8 °F 51.8 °F 100% 29.83 in 5.0 mi WNW 10.4 mph - N/A   Overcast
2:38 AM 51.8 °F 51.8 °F 100% 29.83 in 4.0 mi West 10.4 mph - N/A   Overcast
2:55 AM 51.8 °F 51.8 °F 100% 29.83 in 7.0 mi WNW 12.7 mph - N/A   Overcast
3:15 AM 51.8 °F 51.8 °F 100% 29.84 in 2.5 mi West 12.7 mph 17.3 mph N/A   Overcast
3:16 AM 51.8 °F 51.8 °F 100% 29.84 in 2.5 mi West 11.5 mph 17.3 mph N/A   Overcast
3:35 AM 51.8 °F 51.8 °F 100% 29.84 in 10.0 mi West 13.8 mph 19.6 mph N/A   Overcast
3:36 AM 51.8 °F 51.8 °F 100% 29.84 in 10.0 mi West 15.0 mph 19.6 mph N/A   Overcast
3:59 AM 50.0 °F 50.0 °F 100% 29.84 in 10.0 mi WNW 17.3 mph - N/A   Overcast
4:17 AM 50.0 °F 50.0 °F 100% 29.84 in 7.0 mi WNW 13.8 mph - N/A   Overcast
4:36 AM 50.0 °F 50.0 °F 100% 29.85 in 5.0 mi WNW 12.7 mph - N/A   Overcast
4:55 AM 48.2 °F 48.2 °F 100% 29.85 in 3.0 mi WNW 16.1 mph 20.7 mph N/A   Overcast
4:56 AM 48.2 °F 48.2 °F 100% 29.85 in 4.0 mi WNW 13.8 mph 20.7 mph N/A   Overcast
5:15 AM 48.2 °F 48.2 °F 100% 29.85 in 3.0 mi WNW 17.3 mph - N/A   Overcast
5:37 AM 48.2 °F 48.2 °F 100% 29.85 in 4.0 mi WNW 13.8 mph 18.4 mph N/A   Overcast
5:55 AM 48.2 °F 48.2 °F 100% 29.86 in 7.0 mi West 17.3 mph 21.9 mph N/A   Overcast
6:15 AM 48.2 °F 48.2 °F 100% 29.86 in 10.0 mi West 18.4 mph 23.0 mph N/A   Overcast
6:16 AM 48.2 °F 48.2 °F 100% 29.87 in 10.0 mi WNW 20.7 mph 24.2 mph N/A   Overcast
6:35 AM 48.2 °F 48.2 °F 100% 29.88 in 7.0 mi WNW 17.3 mph 21.9 mph N/A   Overcast
6:36 AM 48.2 °F 48.2 °F 100% 29.88 in 7.0 mi WNW 17.3 mph 21.9 mph N/A   Overcast
6:58 AM 48.2 °F 48.2 °F 100% 29.88 in 1.5 mi WNW 12.7 mph - N/A Rain Light Rain
7:16 AM 48.2 °F 48.2 °F 100% 29.89 in 1.8 mi WNW 15.0 mph - N/A   Overcast
7:35 AM 48.2 °F 48.2 °F 100% 29.89 in 1.8 mi WNW 16.1 mph 21.9 mph N/A   Overcast
7:36 AM 48.2 °F 48.2 °F 100% 29.89 in 1.8 mi WNW 16.1 mph 21.9 mph N/A   Overcast
7:55 AM 48.2 °F 48.2 °F 100% 29.90 in 4.0 mi WNW 13.8 mph 20.7 mph N/A   Overcast
7:56 AM 48.2 °F 48.2 °F 100% 29.90 in 4.0 mi WNW 16.1 mph 21.9 mph N/A   Overcast
8:15 AM 48.2 °F 48.2 °F 100% 29.91 in 1.8 mi WNW 15.0 mph 23.0 mph N/A   Overcast
8:20 AM 48.2 °F 48.2 °F 100% 29.91 in 1.8 mi WNW 16.1 mph 20.7 mph N/A   Overcast
8:38 AM 48.2 °F 48.2 °F 100% 29.91 in 1.2 mi WNW 19.6 mph 23.0 mph N/A   Overcast
8:55 AM 48.2 °F 48.2 °F 100% 29.92 in 1.5 mi WNW 16.1 mph 25.3 mph N/A   Overcast
9:15 AM 50.0 °F 50.0 °F 100% 29.93 in 2.5 mi WNW 16.1 mph 23.0 mph N/A   Overcast
9:16 AM 50.0 °F 50.0 °F 100% 29.93 in 3.0 mi West 17.3 mph 23.0 mph N/A   Overcast
9:35 AM 50.0 °F 50.0 °F 100% 29.94 in 10.0 mi West 12.7 mph 20.7 mph N/A   Overcast
9:59 AM 50.0 °F 50.0 °F 100% 29.94 in 10.0 mi WNW 16.1 mph - N/A   Overcast
10:16 AM 51.8 °F 50.0 °F 94% 29.95 in 7.0 mi WNW 17.3 mph 21.9 mph N/A   Overcast
10:35 AM 51.8 °F 50.0 °F 94% 29.95 in 10.0 mi WNW 15.0 mph 23.0 mph N/A   Overcast
10:36 AM 51.8 °F 50.0 °F 94% 29.95 in 10.0 mi WNW 15.0 mph 23.0 mph N/A   Overcast
10:55 AM 51.8 °F 51.8 °F 100% 29.96 in 1.5 mi WNW 16.1 mph 20.7 mph N/A   Overcast
11:15 AM 51.8 °F 51.8 °F 100% 29.96 in 10.0 mi WNW 16.1 mph - N/A   Overcast
11:19 AM 51.8 °F 51.8 °F 100% 29.96 in 5.0 mi WNW 17.3 mph 21.9 mph N/A   Overcast
11:37 AM 51.8 °F 51.8 °F 100% 29.96 in 7.0 mi West 15.0 mph 23.0 mph N/A   Overcast
11:56 AM 53.6 °F 50.0 °F 88% 29.97 in 10.0 mi WNW 19.6 mph 28.8 mph N/A   Overcast
12:15 PM 51.8 °F 48.2 °F 88% 29.98 in 10.0 mi WNW 18.4 mph 27.6 mph N/A   Overcast
12:16 PM 51.8 °F 48.2 °F 88% 29.98 in 10.0 mi WNW 18.4 mph - N/A   Overcast
12:35 PM 51.8 °F 48.2 °F 88% 29.98 in 10.0 mi WNW 19.6 mph 27.6 mph N/A   Overcast
12:36 PM 51.8 °F 48.2 °F 88% 29.99 in 10.0 mi WNW 23.0 mph 29.9 mph N/A   Overcast
12:58 PM 51.8 °F 50.0 °F 94% 29.99 in 7.0 mi WNW 18.4 mph - N/A   Overcast
1:16 PM 51.8 °F 50.0 °F 94% 29.99 in 7.0 mi WNW 13.8 mph - N/A   Overcast
1:36 PM 53.6 °F 50.0 °F 88% 29.99 in 10.0 mi WNW 15.0 mph 24.2 mph N/A   Overcast
1:55 PM 55.4 °F 50.0 °F 82% 29.99 in 10.0 mi WNW 13.8 mph 20.7 mph N/A   Overcast
1:56 PM 55.4 °F 50.0 °F 82% 29.99 in 10.0 mi WNW 15.0 mph 20.7 mph N/A   Overcast
2:18 PM 55.4 °F 48.2 °F 77% 30.00 in 10.0 mi WNW 13.8 mph 21.9 mph N/A   Overcast
2:36 PM 55.4 °F 50.0 °F 82% 30.00 in 10.0 mi WNW 16.1 mph 20.7 mph N/A   Overcast
2:55 PM 57.2 °F 50.0 °F 77% 30.00 in 10.0 mi WNW 13.8 mph - N/A   Overcast
2:56 PM 57.2 °F 50.0 °F 77% 30.00 in 10.0 mi WNW 16.1 mph - N/A   Overcast
3:15 PM 57.2 °F 50.0 °F 77% 30.00 in 10.0 mi WNW 15.0 mph 21.9 mph N/A   Overcast
3:16 PM 57.2 °F 50.0 °F 77% 30.00 in 10.0 mi WNW 13.8 mph 21.9 mph N/A   Overcast
3:39 PM 57.2 °F 50.0 °F 77% 30.01 in 10.0 mi WNW 12.7 mph 17.3 mph N/A   Overcast
3:57 PM 57.2 °F 50.0 °F 77% 30.01 in 10.0 mi WNW 11.5 mph - N/A   Overcast
4:16 PM 57.2 °F 51.8 °F 82% 30.01 in 10.0 mi WNW 12.7 mph 17.3 mph N/A   Overcast
4:36 PM 59.0 °F 51.8 °F 77% 30.01 in 10.0 mi West 11.5 mph - N/A   Overcast
4:55 PM 59.0 °F 50.0 °F 72% 30.01 in 10.0 mi West 10.4 mph - N/A   Overcast
5:16 PM 59.0 °F 51.8 °F 77% 30.01 in 10.0 mi West 9.2 mph - N/A   Overcast
5:35 PM 59.0 °F 51.8 °F 77% 30.01 in 10.0 mi West 8.1 mph - N/A   Overcast
5:36 PM 59.0 °F 51.8 °F 77% 30.01 in 10.0 mi West 6.9 mph - N/A   Overcast
5:55 PM 57.2 °F 51.8 °F 82% 30.01 in 10.0 mi West 9.2 mph - 0.01 in   Overcast
5:59 PM 57.2 °F 51.8 °F 82% 30.01 in 10.0 mi West 9.2 mph - N/A   Overcast
6:16 PM 57.2 °F 51.8 °F 82% 30.01 in 10.0 mi West 9.2 mph - N/A   Overcast
6:36 PM 57.2 °F 50.0 °F 77% 30.01 in 10.0 mi West 9.2 mph - N/A   Overcast
6:55 PM 57.2 °F 50.0 °F 77% 30.01 in 10.0 mi West 10.4 mph - N/A   Scattered Clouds
6:56 PM 57.2 °F 50.0 °F 77% 30.01 in 10.0 mi West 10.4 mph - N/A   Scattered Clouds
7:15 PM 55.4 °F 51.8 °F 88% 30.01 in 10.0 mi West 8.1 mph - N/A   Clear
7:19 PM 55.4 °F 51.8 °F 88% 30.01 in 10.0 mi West 6.9 mph - N/A   Clear
7:38 PM 53.6 °F 50.0 °F 88% 30.02 in 10.0 mi West 6.9 mph - N/A   Clear
7:55 PM 53.6 °F 50.0 °F 88% 30.02 in 10.0 mi West 6.9 mph - N/A   Clear
8:15 PM 51.8 °F 48.2 °F 88% 30.02 in 10.0 mi WSW 5.8 mph - N/A   Clear
8:16 PM 51.8 °F 48.2 °F 88% 30.02 in 10.0 mi WSW 5.8 mph - N/A   Clear
8:35 PM 51.8 °F 48.2 °F 88% 30.03 in 10.0 mi WSW 4.6 mph - N/A   Clear
8:58 PM 51.8 °F 48.2 °F 88% 30.04 in 10.0 mi WSW 4.6 mph - N/A   Clear
9:16 PM 51.8 °F 48.2 °F 88% 30.04 in 10.0 mi SW 3.5 mph - N/A   Clear
9:35 PM 50.0 °F 46.4 °F 87% 30.04 in 10.0 mi SSW 4.6 mph - N/A   Clear
9:55 PM 48.2 °F 46.4 °F 93% 30.05 in 10.0 mi SSW 4.6 mph - N/A   Clear
9:56 PM 48.2 °F 46.4 °F 93% 30.05 in 10.0 mi SSW 3.5 mph - N/A   Clear
10:15 PM 48.2 °F 46.4 °F 93% 30.05 in 10.0 mi SSW 4.6 mph - N/A   Clear
10:19 PM 48.2 °F 46.4 °F 93% 30.05 in 10.0 mi South 4.6 mph - N/A   Clear
10:38 PM 48.2 °F 46.4 °F 93% 30.05 in 10.0 mi South 3.5 mph - N/A   Clear
10:55 PM 48.2 °F 46.4 °F 93% 30.06 in 10.0 mi SSW 4.6 mph - N/A   Clear
11:15 PM 48.2 °F 46.4 °F 93% 30.06 in 10.0 mi SSW 4.6 mph - N/A   Clear
11:35 PM 48.2 °F 46.4 °F 93% 30.06 in 10.0 mi SSW 3.5 mph - N/A   Clear
11:58 PM 48.2 °F 46.4 °F 93% 30.06 in 10.0 mi South 3.5 mph - N/A   Clear